C/2011 L4 ( PanSTARRS )

Japanese version
Home page
Updated on February 21, 2012

---------------------------------------------------------------------

* Profile

Discovery Date June 6, 2011
Magnitude 19.4 mag
Discoverer Pan-STARRS 1 telescope (Haleakala)

* Pictures

* Orbital Elements

Epoch 2013 Mar. 9.0 TT = JDT 2456360.5
T 2013 Mar. 10.18748 TT                                 MPC
q   0.3015138            (2000.0)            P               Q
z  -0.0000002      Peri.  333.65441     +0.41007174     +0.10045083
 +/-0.0000066      Node    65.66585     +0.90783338     +0.05054469
e   1.0000001      Incl.   84.20709     -0.08763403     +0.99365732
From 179 observations 2011 May 21-2012 Jan. 17, mean residual 0".4.

* Finding Charts

* Magnitudes Graph

        m1 = 5.0 + 5 log d + 10.0 log r

---------------------------------------------------------------------

The orbital elements are published on M.P.E.C. 2012-B23.
The charts are made with StellaNavigator Ver.8 (AstroArts).
The magnitudes graphs are made with Comet for Windows.

---------------------------------------------------------------------

Copyright(C) Seiichi Yoshida (comet@aerith.net). All rights reserved.